weather.gov     
National Weather Service

Regional Weather Roundup
NWS Homepage
This page is being discontinued on March 12, 2014.
The same data is available at this site. Please update your bookmarks.
Thank you, and we apologize for the inconvenience.
Please send an email to SR-SRH.Webmaster@noaa.gov with any concerns.


Current Version
Previous Version:    01  02  03  04  05  06  07  08  09  10  11  12  13  14  15  16  17  18  19  20  21  22  23  24  25  26  27  28  29  30  
   31  32  33  34  35  36  37  38  39  40  41  42  43  44  45  46  47  48  49  50  51  52  53  
[Printable]
880
ASUS43 KGRB 020410
RWRGRB

NORTH-CENTRAL AND NORTHEAST WISCONSIN REGIONAL WEATHER ROUNDUP
NATIONAL WEATHER SERVICE GREEN BAY WI
1100 PM CDT MON SEP 01 2014

WIZ005-009-010>012-018-019-020500-
NORTH CENTRAL WISCONSIN

CITY           SKY/WX    TMP DP  RH WIND       PRES   REMARKS
IRONWOOD       NOT AVBL
MANITOWISH WTR CLEAR     52  52 100 CALM      29.79S FOG
ARBOR VITAE    CLEAR     59  55  87 W5        29.79S
EAGLE RIVER    CLEAR     54  54 100 CALM      29.78S FOG
LAND O LAKES   CLEAR     56  54  95 CALM      29.79S
RHINELANDER    CLEAR     55  53  93 W5        29.80S
PHILLIPS       PTCLDY    57  53  87 W3        29.79F
ANTIGO         CLEAR     58  54  88 NW5       29.80S
TOMAHAWK       CLEAR     53  51  92 CALM      29.80S
MERRILL        CLEAR     56  55  94 W3        29.80S
$$

WIZ013-073-020500-
NORTHEAST WISCONSIN

CITY           SKY/WX    TMP DP  RH WIND       PRES   REMARKS
IRON MOUNTAIN  FOG       57  55  93 CALM      29.75R VSB 1
MARINETTE      CLEAR     63  57  82 W3        29.75R
OCONTO         CLEAR     58  58 100 CALM      29.76S
$$

WIZ017-030-035>037-045-020500-
CENTRAL WISCONSIN

CITY           SKY/WX    TMP DP  RH WIND       PRES   REMARKS
MEDFORD        CLEAR     57  55  91 SW3       29.81R
WAUSAU         CLEAR     62  57  83 NW7       29.79S
MOSINEE        PTCLDY    59  55  88 W5        29.80F
MARSHFIELD     CLEAR     60  56  86 W6        29.80S
WISC RAPIDS    CLEAR     59  57  93 CALM      29.81S
STEVENS POINT  PTCLDY    62  57  84 W3        29.81R
WAUPACA        PTCLDY    64  61  88 W3        29.80R
SHAWANO        CLEAR     64  58  82 CALM      29.78S
CLINTONVILLE   CLEAR     61  55  82 W5        29.78S
$$

WIZ038-039-048-051-020500-
FOX VALLEY

CITY           SKY/WX    TMP DP  RH WIND       PRES   REMARKS
NWS GREEN BAY  CLEAR     63  60  90 SW5       29.78R
APPLETON       CLEAR     63  61  94 CALM      29.80R
OSHKOSH        CLEAR     65  63  93 SW3       29.80R
FOND DU LAC    CLEAR     63  60  90 SW5       29.82R
$$

WIZ022-050-052-020500-
EAST CENTRAL WISCONSIN

CITY           SKY/WX    TMP DP  RH WIND       PRES   REMARKS
STURGEON BAY   CLEAR     66  59  77 W6        29.77R
MANITOWOC      CLEAR     66  64  93 W3        29.79R
SHEBOYGAN      CLEAR     62  60  93 SW6       29.81R
$$

LMZ563-521-522-541>543-020500-
LAKESHORE

STATION/POSITION TIME  TEMP    WIND        PRES    VSBY  WAVE
                       AIR SEA DIR/SP/G                  HT/PER
                 (UTC) (F)     (DEG/KT/KT) (MB)    (MI)  (FT/S)
SHEBOYGAN LKSHOR 0400   66 48  240/  6/  7 1009.3R
KEWAUNEE LKSHORE 0400   66     280/  2/  5 1007.4R
NORTHPORT PIER   0400   65     270/  2/  4 1007.5R
N MID LAKE BUOY  0400   66 65  240/  4/  4 1007.0R         2/ 6
S GREEN BAY BUOY 0400   70     VRB 10/ 12  1008.9S
CHAMBERS ISLAND  0400   67     230/  4/  7 1007.8R
MENOMINEE LKSHOR 0400   66     260/  5/  8 1008.3S
$$




U.S. Dept. of Commerce
NOAA National Weather Service
1325 East West Highway
Silver Spring, MD 20910
E-mail: w-nws.webmaster@noaa.gov
Page last modified: May 16, 2007
NATIONAL WEATHER SERVICE: for Safety, for Work, for Fun - FOR LIFE